Location: Newark
(36.2667°N, 50.0000°E)
Time: 21:24:11
(UTC+00:00)

Hubble Space Telescope - Pass Details

Date: 25 September 2020
Orbit: 536 x 540 km, 28.5° (Epoch: 26 October)

Event Time Altitude Azimuth Distance (km) Brightness Sun altitude
Exits shadow 01:29:00 - 209° (SSW) 1,931 3.2 -13.2°
Reaches altitude 10° 01:29:36 10° 203° (SSW) 1,773 3.1 -13.0°
Maximum altitude 01:32:12 16° 164° (SSE) 1,415 3.0 -12.5°
Drops below altitude 10° 01:34:49 10° 124° (SE) 1,775 4.2 -12.0°
Sets 01:37:44 0° 103° (ESE) 2,667 5.8 -11.4°
